When you browse on this site, cookies collect data to enhance your experience and personalize the content and advertising you see.
Visit our Privacy Policy to learn more. By continuing to use the site, you agree to this use of cookies and data.
  • In Österreich
  • Länderverzeichnis
  • Für 7 Tage
  • Wassertemperatur
  • Wetterkarte
  • News
  • Widgets
  • user-avatar
    Anmelden

    Stündliche Wetter Trinidad

    Heute, 15 Oktober, Dienstag

    Zeit Temperatur Niederschläge Wind Luftdruck Luftfeuchtigkeit
    00:00 +25°C° 1.3 mm 1 m/S 744 mmHg 89%
    01:00 +25°C° 1.3 mm 1 m/S 744 mmHg 92%
    02:00 +24°C° 1.3 mm 1 m/S 744 mmHg 95%
    03:00 +24°C° 1 mm 1 m/S 744 mmHg 96%
    04:00 +24°C° 1 mm 1 m/S 744 mmHg 96%
    05:00 +24°C° 1 mm 1 m/S 745 mmHg 97%
    06:00 +24°C° 0.7 mm 2 m/S 746 mmHg 95%
    07:00 +25°C° 0.7 mm 2 m/S 747 mmHg 93%
    08:00 +25°C° 0.7 mm 3 m/S 748 mmHg 91%
    09:00 +24°C° 1.5 mm 3 m/S 748 mmHg 92%
    10:00 +24°C° 1.5 mm 3 m/S 748 mmHg 93%
    11:00 +22°C° 1.5 mm 3 m/S 748 mmHg 93%
    12:00 +24°C° 0.3 mm 3 m/S 747 mmHg 92%
    13:00 +24°C° 0.3 mm 3 m/S 746 mmHg 90%
    14:00 +24°C° 0.3 mm 3 m/S 746 mmHg 88%
    15:00 +24°C° 0 mm 2 m/S 745 mmHg 87%
    16:00 +25°C° 0 mm 2 m/S 744 mmHg 85%
    17:00 +25°C° 0 mm 2 m/S 743 mmHg 83%
    18:00 +24°C° 0 mm 2 m/S 744 mmHg 86%
    19:00 +23°C° 0 mm 2 m/S 744 mmHg 89%
    20:00 +23°C° 0 mm 2 m/S 744 mmHg 92%
    21:00 +21°C° 0 mm 2 m/S 744 mmHg 91%
    22:00 +21°C° 0 mm 2 m/S 745 mmHg 90%
    23:00 +22°C° 0 mm 1 m/S 745 mmHg 89%

    Morgen, 16 Oktober, Mittwoch

    Zeit Temperatur Niederschläge Wind Luftdruck Luftfeuchtigkeit
    00:00 +22°C° 0 mm 1 m/S 745 mmHg 89%
    01:00 +22°C° 0 mm 1 m/S 745 mmHg 89%
    02:00 +22°C° 0 mm 1 m/S 744 mmHg 88%
    03:00 +21°C° 0 mm 2 m/S 745 mmHg 87%
    04:00 +21°C° 0 mm 2 m/S 745 mmHg 86%
    05:00 +21°C° 0 mm 3 m/S 745 mmHg 85%
    06:00 +21°C° 0 mm 3 m/S 746 mmHg 79%
    07:00 +22°C° 0 mm 3 m/S 746 mmHg 73%
    08:00 +24°C° 0 mm 3 m/S 747 mmHg 67%
    09:00 +26°C° 0 mm 3 m/S 747 mmHg 61%
    10:00 +28°C° 0 mm 3 m/S 747 mmHg 55%
    11:00 +31°C° 0 mm 2 m/S 747 mmHg 49%
    12:00 +32°C° 0 mm 2 m/S 746 mmHg 46%
    13:00 +35°C° 0 mm 2 m/S 745 mmHg 43%
    14:00 +35°C° 0 mm 1 m/S 744 mmHg 40%
    15:00 +35°C° 0 mm 1 m/S 743 mmHg 42%
    16:00 +34°C° 0 mm 1 m/S 742 mmHg 44%
    17:00 +34°C° 0 mm 1 m/S 741 mmHg 46%
    18:00 +32°C° 0 mm 1 m/S 741 mmHg 52%
    19:00 +28°C° 0 mm 0 m/S 742 mmHg 59%
    20:00 +26°C° 0 mm 0 m/S 742 mmHg 65%
    21:00 +25°C° 0 mm 0 m/S 742 mmHg 65%
    22:00 +27°C° 0 mm 1 m/S 743 mmHg 66%
    23:00 +27°C° 0 mm 1 m/S 743 mmHg 66%

    übermorgen, 17 Oktober, Donnerstag

    Zeit Temperatur Niederschläge Wind Luftdruck Luftfeuchtigkeit
    00:00 +26°C° 0 mm 1 m/S 743 mmHg 68%
    01:00 +24°C° 0 mm 0 m/S 743 mmHg 70%
    02:00 +23°C° 0 mm 0 m/S 742 mmHg 72%
    03:00 +23°C° 0 mm 0 m/S 742 mmHg 74%
    04:00 +23°C° 0 mm 0 m/S 743 mmHg 75%
    05:00 +23°C° 0 mm 0 m/S 743 mmHg 77%
    06:00 +24°C° 0.2 mm 0 m/S 743 mmHg 74%
    07:00 +26°C° 0.2 mm 0 m/S 744 mmHg 71%
    08:00 +28°C° 0.2 mm 0 m/S 744 mmHg 67%
    09:00 +30°C° 0 mm 0 m/S 744 mmHg 58%
    10:00 +33°C° 0 mm 0 m/S 744 mmHg 49%
    11:00 +39°C° 0 mm 1 m/S 744 mmHg 40%
    12:00 +39°C° 0 mm 1 m/S 743 mmHg 40%
    13:00 +38°C° 0 mm 2 m/S 742 mmHg 40%
    14:00 +38°C° 0 mm 2 m/S 741 mmHg 39%
    15:00 +37°C° 0 mm 2 m/S 741 mmHg 42%
    16:00 +37°C° 0 mm 3 m/S 740 mmHg 44%
    17:00 +36°C° 0 mm 3 m/S 740 mmHg 46%
    18:00 +34°C° 0.2 mm 2 m/S 740 mmHg 56%
    19:00 +30°C° 0.2 mm 2 m/S 740 mmHg 66%
    20:00 +28°C° 0.2 mm 2 m/S 741 mmHg 76%
    21:00 +27°C° 1.1 mm 2 m/S 742 mmHg 81%
    22:00 +26°C° 1.1 mm 2 m/S 742 mmHg 86%
    23:00 +25°C° 1.1 mm 2 m/S 743 mmHg 92%

    18 Oktober, Freitag

    Zeit Temperatur Niederschläge Wind Luftdruck Luftfeuchtigkeit
    00:00 +25°C° 0.7 mm 2 m/S 743 mmHg 93%
    01:00 +25°C° 0.7 mm 2 m/S 742 mmHg 94%
    02:00 +25°C° 0.7 mm 1 m/S 742 mmHg 96%
    03:00 +25°C° 0.1 mm 1 m/S 742 mmHg 96%
    04:00 +24°C° 0.1 mm 1 m/S 742 mmHg 97%
    05:00 +24°C° 0.1 mm 1 m/S 742 mmHg 97%
    06:00 +25°C° 0.1 mm 1 m/S 743 mmHg 93%
    07:00 +26°C° 0.1 mm 1 m/S 743 mmHg 90%
    08:00 +27°C° 0.1 mm 1 m/S 744 mmHg 86%
    09:00 +30°C° 0 mm 1 m/S 744 mmHg 73%
    10:00 +32°C° 0 mm 2 m/S 744 mmHg 61%
    11:00 +36°C° 0 mm 2 m/S 744 mmHg 49%
    12:00 +37°C° 0 mm 2 m/S 743 mmHg 46%
    13:00 +38°C° 0 mm 2 m/S 743 mmHg 42%
    14:00 +38°C° 0 mm 2 m/S 742 mmHg 39%
    15:00 +38°C° 0 mm 2 m/S 741 mmHg 41%
    16:00 +37°C° 0 mm 2 m/S 740 mmHg 43%
    17:00 +37°C° 0 mm 2 m/S 739 mmHg 44%
    18:00 +34°C° 0 mm 1 m/S 740 mmHg 50%
    19:00 +32°C° 0 mm 1 m/S 740 mmHg 57%
    20:00 +30°C° 0 mm 1 m/S 741 mmHg 63%
    21:00 +28°C° 0.8 mm 1 m/S 741 mmHg 71%
    22:00 +27°C° 0.8 mm 1 m/S 742 mmHg 78%
    23:00 +26°C° 0.8 mm 1 m/S 743 mmHg 86%

    19 Oktober, Samstag

    Zeit Temperatur Niederschläge Wind Luftdruck Luftfeuchtigkeit
    00:00 +25°C° 1.6 mm 1 m/S 743 mmHg 89%
    01:00 +25°C° 1.6 mm 1 m/S 743 mmHg 93%
    02:00 +25°C° 1.6 mm 1 m/S 743 mmHg 96%
    03:00 +25°C° 1 mm 1 m/S 743 mmHg 96%
    04:00 +25°C° 1 mm 1 m/S 744 mmHg 97%
    05:00 +25°C° 1 mm 1 m/S 744 mmHg 97%
    06:00 +25°C° 0.1 mm 2 m/S 744 mmHg 96%
    07:00 +25°C° 0.1 mm 2 m/S 745 mmHg 95%
    08:00 +26°C° 0.1 mm 2 m/S 746 mmHg 93%
    09:00 +26°C° 0 mm 2 m/S 746 mmHg 89%
    10:00 +27°C° 0 mm 2 m/S 746 mmHg 84%
    11:00 +28°C° 0 mm 2 m/S 746 mmHg 80%
    12:00 +28°C° 0.2 mm 2 m/S 745 mmHg 78%
    13:00 +29°C° 0.2 mm 3 m/S 744 mmHg 76%
    14:00 +29°C° 0.2 mm 3 m/S 744 mmHg 74%
    15:00 +29°C° 0 mm 2 m/S 743 mmHg 73%
    16:00 +29°C° 0 mm 2 m/S 743 mmHg 72%
    17:00 +29°C° 0 mm 2 m/S 742 mmHg 72%
    18:00 +28°C° 0 mm 2 m/S 742 mmHg 77%
    19:00 +26°C° 0 mm 2 m/S 742 mmHg 82%
    20:00 +25°C° 0 mm 2 m/S 742 mmHg 87%
    21:00 +25°C° 0 mm 2 m/S 743 mmHg 88%
    22:00 +24°C° 0 mm 2 m/S 743 mmHg 89%
    23:00 +24°C° 0 mm 1 m/S 743 mmHg 89%

    20 Oktober, Sonntag

    Zeit Temperatur Niederschläge Wind Luftdruck Luftfeuchtigkeit
    00:00 +23°C° 0.1 mm 1 m/S 743 mmHg 91%
    01:00 +23°C° 0.1 mm 1 m/S 743 mmHg 92%
    02:00 +22°C° 0.1 mm 1 m/S 743 mmHg 93%
    03:00 +22°C° 0 mm 1 m/S 743 mmHg 94%
    04:00 +22°C° 0 mm 1 m/S 743 mmHg 95%
    05:00 +22°C° 0 mm 1 m/S 743 mmHg 95%
    06:00 +23°C° 0 mm 1 m/S 743 mmHg 91%
    07:00 +24°C° 0 mm 1 m/S 744 mmHg 87%
    08:00 +25°C° 0 mm 1 m/S 744 mmHg 82%
    09:00 +27°C° 0.1 mm 1 m/S 745 mmHg 74%
    10:00 +30°C° 0.1 mm 1 m/S 745 mmHg 66%
    11:00 +32°C° 0.1 mm 1 m/S 745 mmHg 58%
    12:00 +32°C° 0 mm 2 m/S 744 mmHg 58%
    13:00 +33°C° 0 mm 3 m/S 743 mmHg 59%
    14:00 +33°C° 0 mm 4 m/S 742 mmHg 60%
    15:00 +31°C° 0 mm 3 m/S 742 mmHg 63%
    16:00 +30°C° 0 mm 2 m/S 741 mmHg 66%
    17:00 +29°C° 0 mm 2 m/S 741 mmHg 70%
    18:00 +28°C° 0 mm 2 m/S 741 mmHg 75%
    19:00 +27°C° 0 mm 2 m/S 741 mmHg 79%
    20:00 +26°C° 0 mm 1 m/S 741 mmHg 84%
    21:00 +25°C° 0 mm 1 m/S 741 mmHg 86%
    22:00 +25°C° 0 mm 1 m/S 741 mmHg 87%
    23:00 +25°C° 0 mm 1 m/S 742 mmHg 89%
    Mehr zeigen